Oujda, Morocco

2:57 AM WET on January 19, 2018 (GMT +0000)
Oujda

Weather History for GMFO - May, 2014

Change the Weather History Date:

Sunday, May 11, 2014

  Actual Average Record
Temperature  
Mean Temperature 72 °F -  
Max Temperature 91 °F 79 °F 91 °F (2014)
Min Temperature 53 °F 55 °F 44 °F (2001)
Cooling Degree Days 7    
Growing Degree Days 22 (Base 50)    
Moisture  
Dew Point 48 °F    
Average Humidity 45    
Maximum Humidity 88    
Minimum Humidity 11    
Precipitation  
Precipitation 0.00 in 0.04 in - ()
Sea Level Pressure  
Sea Level Pressure 30.00 in    
Wind  
Wind Speed 4 mph ()    
Max Wind Speed 16 mph    
Max Gust Speed -    
Visibility 9.4 miles    
Events      
Averages and records for this station are not official NWS values.
T = Trace of Precipitation, MM = Missing Value Source: Averaged Metar Reports

Daily Weather History Graph

Daily Weather History Graph

Search for Another Location

Airport or City:

Trip Planner

Search our weather history database for the weather conditions in past years. The results will help you decide how hot, cold, wet, or windy it might be!

Date:

Astronomy

May. 11, 2014 Rise Set
Actual Time 6:08 AM WEST 8:00 PM WEST
Civil Twilight 5:40 AM WEST 8:28 PM WEST
Nautical Twilight 5:06 AM WEST 9:01 PM WEST
Astronomical Twilight 4:31 AM WEST 9:37 PM WEST
Moon 4:49 PM WEST (5/11) 3:56 AM WEST (5/11)
Length of Visible Light 14h 48m
Length of Day
13h 52m
Waxing Gibbous, 87% of the Moon is Illuminated
May 11
Waxing Gibbous
May 14
Full
May 21
Last Quarter
May 28
New
Jun 5
First Quarter

Hourly Weather History & Observations

Time (WEST) Temp. Dew Point Humidity Pressure Visibility Wind Dir Wind Speed Gust Speed Precip Events Conditions
12:00 AM 62.6 °F 53.6 °F 72% 30.06 in 6.2 mi Variable 2.3 mph - N/A   Mostly Cloudy
1:00 AM 60 °F 56 °F 83% 30.05 in 6 mi NNW 3.5 mph - -   Scattered Clouds
1:00 AM 60.8 °F 57.2 °F 88% 30.06 in 6.2 mi NW 3.5 mph - N/A   Mostly Cloudy
3:00 AM 59.0 °F 51.8 °F 77% 30.04 in - Variable 2.3 mph - N/A   Clear
4:00 AM 58 °F 52 °F 75% 30.01 in 6 mi WSW 2.3 mph - -  
5:00 AM 59.0 °F 53.6 °F 82% 30.01 in - South 4.6 mph - N/A   Clear
6:00 AM 55.4 °F 51.8 °F 88% 30.01 in - SW 5.8 mph - N/A   Clear
7:00 AM 53.6 °F 50.0 °F 88% 30.04 in - Calm Calm - N/A   Clear
8:00 AM 64.4 °F 53.6 °F 68% 30.04 in - Calm Calm - N/A   Clear
9:00 AM 77.0 °F 55.4 °F 47% 30.04 in - Variable 2.3 mph - N/A   Clear
10:00 AM 81 °F 50 °F 24% 29.96 in 12 mi NNE 3.5 mph - -   Clear
10:00 AM 82.4 °F 51.8 °F 35% 30.04 in - NNE 3.5 mph - N/A   Clear
11:00 AM 86.0 °F 50.0 °F 29% 30.04 in - Variable 1.2 mph - N/A   Clear
12:00 PM 86.0 °F 42.8 °F 22% 30.04 in - NNE 4.6 mph - N/A   Clear
1:00 PM 90 °F 42 °F 11% 29.90 in 12 mi North 10.4 mph - -   Clear
1:00 PM 91.4 °F 44.6 °F 20% 30.01 in - North 9.2 mph - N/A   Clear
4:00 PM 90 °F 46 °F 13% 29.86 in 12 mi North 16.1 mph - -   Clear
4:00 PM 89.6 °F 46.4 °F 22% 29.95 in - North 16.1 mph - N/A   Clear
5:00 PM 89.6 °F 42.8 °F 20% 29.95 in - North 15.0 mph - N/A   Clear
6:00 PM 87.8 °F 42.8 °F 21% 29.95 in - North 12.7 mph - N/A   Clear
7:00 PM 85 °F 41 °F 12% 29.86 in 12 mi North 10.4 mph - -   Clear
9:00 PM 73.4 °F 39.2 °F 29% 29.98 in - North 3.5 mph - N/A   Clear
10:00 PM 70 °F 40 °F 22% 29.96 in 12 mi Calm Calm - -   Clear
10:00 PM 69.8 °F 39.2 °F 33% 30.01 in - Calm Calm - N/A   Clear
11:00 PM 68.0 °F 39.2 °F 35% 30.01 in - WSW 5.8 mph - N/A   Clear